Tucson, AZ

6:02 AM MST on September 18, 2019 (GMT -0700)
Tucson International

Weather History for KTUS - July, 2019

Change the Weather History Date:

Friday, July 12, 2019

  Actual Average Record
Temperature  
Mean Temperature 96 °F 88 °F  
Max Temperature 106 °F 100 °F 110 °F (2005)
Min Temperature 86 °F 75 °F 63 °F (1960)
Degree Days  
Heating Degree Days 0 0  
Month to date heating degree days 0 0  
Since 1 June heating degree days 0 0  
Since 1 July heating degree days 0 0  
Cooling Degree Days 31 23  
Month to date cooling degree days 299 276  
Year to date cooling degree days 1284 1372  
Since 1 June cooling degree days 912 870  
Growing Degree Days 46 (Base 50)    
Moisture  
Dew Point 47 °F    
Average Humidity 19    
Maximum Humidity 28    
Minimum Humidity 7    
Precipitation  
Precipitation 0.00 in 0.07 in 1.31 in (1923)
Month to date precipitation 0.02 0.60  
Year to date precipitation 5.05 3.87  
Sea Level Pressure  
Sea Level Pressure 29.75 in    
Wind  
Wind Speed 7 mph (ESE)    
Max Wind Speed 22 mph    
Max Gust Speed 30 mph    
Visibility 10 miles    
Events      
T = Trace of Precipitation, MM = Missing Value Source: NWS Daily Summary

Daily Weather History Graph

Daily Weather History Graph

Search for Another Location

Airport or City:

Astronomy

Jul. 12, 2019 Rise Set
Actual Time 5:26 AM MST 7:32 PM MST
Civil Twilight 4:58 AM MST 8:00 PM MST
Nautical Twilight 4:24 AM MST 8:33 PM MST
Astronomical Twilight 3:48 AM MST 9:10 PM MST
Moon 3:59 PM MST (7/12) 2:04 AM MST (7/12)
Length of Visible Light 15h 01m
Length of Day
14h 05m
Waxing Gibbous, 83% of the Moon is Illuminated
Jul 12
Waxing Gibbous
Jul 16
Full
Jul 24
Last Quarter
Jul 31
New
Aug 7
First Quarter

Hourly Weather History & Observations

Time (MST) Temp. Dew Point Humidity Pressure Visibility Wind Dir Wind Speed Gust Speed Precip Events Conditions
12:53 AM 90.0 °F 39.9 °F 17% 29.81 in 10.0 mi South 3.5 mph - N/A   Clear
1:53 AM 90.0 °F 48.9 °F 24% 29.79 in 10.0 mi ESE 16.1 mph 24.2 mph N/A   Clear
2:53 AM 90.0 °F 50.0 °F 25% 29.79 in 10.0 mi ESE 18.4 mph 28.8 mph N/A   Clear
3:53 AM 89.1 °F 50.0 °F 26% 29.78 in 10.0 mi SE 8.1 mph - N/A   Mostly Cloudy
4:53 AM 88.0 °F 50.0 °F 27% 29.77 in 10.0 mi Calm Calm - N/A   Clear
5:53 AM 87.1 °F 50.0 °F 28% 29.79 in 10.0 mi East 6.9 mph - N/A   Clear
6:53 AM 88.0 °F 48.9 °F 26% 29.81 in 10.0 mi SSE 8.1 mph - N/A   Clear
7:53 AM 91.0 °F 50.0 °F 24% 29.82 in 10.0 mi ESE 5.8 mph - N/A   Clear
8:53 AM 95.0 °F 48.0 °F 20% 29.81 in 10.0 mi ENE 4.6 mph - N/A   Clear
9:53 AM 98.1 °F 48.9 °F 19% 29.79 in 10.0 mi ENE 6.9 mph - N/A   Clear
10:53 AM 99.0 °F 48.0 °F 18% 29.78 in 10.0 mi NE 5.8 mph - N/A   Clear
11:53 AM 100.9 °F 48.0 °F 17% 29.76 in 10.0 mi NE 5.8 mph - N/A   Clear
12:53 PM 100.0 °F 46.0 °F 16% 29.74 in 10.0 mi Variable 4.6 mph - N/A   Clear
1:53 PM 100.9 °F 45.0 °F 15% 29.72 in 10.0 mi WSW 8.1 mph - N/A   Clear
2:53 PM 102.0 °F 46.0 °F 15% 29.70 in 10.0 mi WSW 9.2 mph - N/A   Clear
3:53 PM 105.1 °F 46.0 °F 14% 29.68 in 10.0 mi ESE 4.6 mph - N/A   Clear
4:53 PM 105.1 °F 45.0 °F 13% 29.66 in 10.0 mi NNE 5.8 mph - N/A   Clear
5:53 PM 99.0 °F 44.1 °F 15% 29.68 in 10.0 mi East 11.5 mph 25.3 mph N/A   Clear
6:53 PM 99.0 °F 42.1 °F 14% 29.68 in 10.0 mi NE 6.9 mph - N/A   Clear
7:53 PM 96.1 °F 45.0 °F 17% 29.68 in 10.0 mi SSW 5.8 mph - N/A   Clear
8:53 PM 93.9 °F 45.0 °F 18% 29.70 in 10.0 mi SSW 3.5 mph - N/A   Clear
9:53 PM 93.0 °F 46.0 °F 20% 29.73 in 10.0 mi Calm Calm - N/A   Clear
10:53 PM 91.9 °F 46.0 °F 21% 29.74 in 10.0 mi SSW 5.8 mph - N/A   Clear
11:53 PM 91.0 °F 48.9 °F 23% 29.74 in 10.0 mi South 4.6 mph - N/A   Clear